Location: Unspecified
(0.0000°N, 0.0000°E)
Time: 00:06:29
(UTC+00:00)

Envisat - Pass Details

Date: 02 December 2022
Orbit: 763 x 765 km, 98.2° (Epoch: 02 December)

Event Time Altitude Azimuth Distance (km) Brightness Sun altitude
Exits shadow 03:36:48 52° 76° (ENE) 947 3.6 -30.5°
Maximum altitude 03:37:22 55° 102° (ESE) 915 3.6 -30.3°
Drops below altitude 10° 03:42:19 10° 179° (S) 2,300 5.7 -29.2°
Sets 03:44:40 0° 183° (S) 3,229 6.5 -28.7°
